Date,Installs,Update checks
2014-05-11,2,
2014-05-12,2,
2014-05-13,2,
2014-05-14,1,
2014-05-15,2,
2014-05-16,1,
2014-05-17,1,
2014-05-18,0,
2014-05-19,1,
2014-05-20,3,
2014-05-21,0,
2014-05-22,2,
2014-05-23,1,
2014-05-24,3,
2014-05-25,0,
2014-05-26,0,
2014-05-27,2,
2014-05-28,2,
2014-05-29,2,
2014-05-30,1,
2014-05-31,0,
2014-06-01,2,
2014-06-02,1,
2014-06-03,1,
2014-06-04,1,
2014-06-05,1,
2014-06-06,1,
2014-06-07,1,
2014-06-08,2,
2014-06-09,3,
2014-06-10,2,
2014-06-11,1,
2014-06-12,0,
2014-06-13,3,
2014-06-14,1,
2014-06-15,1,
2014-06-16,1,
2014-06-17,0,
2014-06-18,3,
2014-06-19,1,
2014-06-20,0,
2014-06-21,1,
2014-06-22,2,
2014-06-23,1,
2014-06-24,2,
2014-06-25,0,
2014-06-26,0,
2014-06-27,3,
2014-06-28,0,
2014-06-29,2,
2014-06-30,0,
2014-07-01,1,
2014-07-02,2,
2014-07-03,1,
2014-07-04,2,
2014-07-05,2,
2014-07-06,2,
2014-07-07,2,
2014-07-08,1,
2014-07-09,0,
2014-07-10,1,
2014-07-11,0,
2014-07-12,1,
2014-07-13,2,
2014-07-14,3,
2014-07-15,1,
2014-07-16,1,
2014-07-17,1,
2014-07-18,1,
2014-07-19,3,
2014-07-20,1,
2014-07-21,0,
2014-07-22,1,
2014-07-23,1,
2014-07-24,0,
2014-07-25,2,
2014-07-26,1,
2014-07-27,3,
2014-07-28,2,
2014-07-29,0,
2014-07-30,2,
2014-07-31,1,
2014-08-01,2,
2014-08-02,2,
2014-08-03,1,
2014-08-04,1,
2014-08-05,0,
2014-08-06,0,
2014-08-07,0,
2014-08-08,0,
2014-08-09,0,
2014-08-10,1,
2014-08-11,0,
2014-08-12,0,
2014-08-13,0,
2014-08-14,0,
2014-08-15,0,
2014-08-16,0,
2014-08-17,4,
2014-08-18,1,
2014-08-19,1,
2014-08-20,0,
2014-08-21,0,
2014-08-22,0,
2014-08-23,1,
2014-08-24,0,
2014-08-25,0,
2014-08-26,0,
2014-08-27,1,
2014-08-28,1,
2014-08-29,0,
2014-08-30,0,
2014-08-31,0,
2014-09-01,0,
2014-09-02,0,
2014-09-03,0,
2014-09-04,0,
2014-09-05,2,
2014-09-06,2,
2014-09-07,0,
2014-09-08,1,
2014-09-09,0,
2014-09-10,1,
2014-09-11,0,
2014-09-12,0,
2014-09-13,1,
2014-09-14,0,
2014-09-15,0,
2014-09-16,0,
2014-09-17,0,
2014-09-18,1,
2014-09-19,0,
2014-09-20,0,
2014-09-21,0,
2014-09-22,0,
2014-09-23,0,
2014-09-24,0,
2014-09-25,0,
2014-09-26,1,
2014-09-27,1,
2014-09-28,0,
2014-09-29,0,
2014-09-30,0,
2014-10-01,2,
2014-10-02,0,
2014-10-03,0,
2014-10-04,0,
2014-10-05,1,
2014-10-06,0,
2014-10-07,0,
2014-10-08,0,
2014-10-09,0,
2014-10-10,0,
2014-10-11,2,
2014-10-12,1,
2014-10-13,1,
2014-10-14,1,
2014-10-15,2,
2014-10-16,1,
2014-10-17,3,
2014-10-18,0,
2014-10-19,1,
2014-10-20,0,
2014-10-21,1,
2014-10-22,0,
2014-10-23,1,85
2014-10-24,0,44
2014-10-25,1,79
2014-10-26,0,55
2014-10-27,0,68
2014-10-28,1,56
2014-10-29,0,73
2014-10-30,0,67
2014-10-31,0,67
2014-11-01,1,75
2014-11-02,0,77
2014-11-03,0,58
2014-11-04,0,58
2014-11-05,0,63
2014-11-06,0,59
2014-11-07,0,71
2014-11-08,0,70
2014-11-09,1,62
2014-11-10,0,57
2014-11-11,0,75
2014-11-12,0,66
2014-11-13,0,61
2014-11-14,0,72
2014-11-15,0,62
2014-11-16,1,71
2014-11-17,1,55
2014-11-18,1,72
2014-11-19,1,52
2014-11-20,0,77
2014-11-21,2,69
2014-11-22,3,76
2014-11-23,2,65
2014-11-24,0,79
2014-11-25,0,66
2014-11-26,0,78
2014-11-27,2,75
2014-11-28,1,75
2014-11-29,1,71
2014-11-30,0,82
2014-12-01,1,78
2014-12-02,1,75
2014-12-03,0,76
2014-12-04,0,76
2014-12-05,0,72
2014-12-06,0,64
2014-12-07,1,74
2014-12-08,1,68
2014-12-09,0,73
2014-12-10,0,78
2014-12-11,0,69
2014-12-12,1,81
2014-12-13,0,66
2014-12-14,0,74
2014-12-15,1,71
2014-12-16,1,67
2014-12-17,0,75
2014-12-18,0,75
2014-12-19,0,72
2014-12-20,1,76
2014-12-21,0,74
2014-12-22,1,78
2014-12-23,0,78
2014-12-24,1,75
2014-12-25,2,74
2014-12-26,1,80
2014-12-27,1,86
2014-12-28,0,90
2014-12-29,0,76
2014-12-30,0,79
2014-12-31,3,74
2015-01-01,1,75
2015-01-02,1,82
2015-01-03,0,83
2015-01-04,0,94
2015-01-05,1,78
2015-01-06,2,96
2015-01-07,0,83
2015-01-08,0,97
2015-01-09,0,99
2015-01-10,3,93
2015-01-11,1,95
2015-01-12,0,91
2015-01-13,1,88
2015-01-14,1,97
2015-01-15,0,99
2015-01-16,1,96
2015-01-17,1,95
2015-01-18,4,89
2015-01-19,0,89
2015-01-20,0,105
2015-01-21,1,90
2015-01-22,0,101
2015-01-23,0,94
2015-01-24,1,100
2015-01-25,1,84
2015-01-26,0,95
2015-01-27,0,79
2015-01-28,0,101
2015-01-29,1,90
2015-01-30,0,92
2015-01-31,2,86
2015-02-01,2,95
2015-02-02,3,92
2015-02-03,0,90
2015-02-04,1,86
2015-02-05,1,95
2015-02-06,0,85
2015-02-07,4,99
2015-02-08,0,81
2015-02-09,0,92
2015-02-10,0,95
2015-02-11,2,100
2015-02-12,1,91
2015-02-13,3,97
2015-02-14,2,87
2015-02-15,2,95
2015-02-16,1,95
2015-02-17,1,80
2015-02-18,0,97
2015-02-19,1,86
2015-02-20,1,95
2015-02-21,0,76
2015-02-22,1,95
2015-02-23,2,84
2015-02-24,1,86
2015-02-25,1,98
2015-02-26,1,88
2015-02-27,1,96
2015-02-28,1,88
2015-03-01,1,88
2015-03-02,1,92
2015-03-03,1,95
2015-03-04,2,88
2015-03-05,2,89
2015-03-06,2,98
2015-03-07,1,94
2015-03-08,1,94
2015-03-09,2,100
2015-03-10,2,91
2015-03-11,2,95
2015-03-12,1,95
2015-03-13,0,91
2015-03-14,1,99
2015-03-15,1,98
2015-03-16,1,97
2015-03-17,1,86
2015-03-18,0,101
2015-03-19,1,98
2015-03-20,0,97
2015-03-21,1,88
2015-03-22,2,95
2015-03-23,0,100
2015-03-24,0,103
2015-03-25,0,108
2015-03-26,1,103
2015-03-27,1,97
2015-03-28,0,101
2015-03-29,1,94
2015-03-30,2,104
2015-03-31,0,90
2015-04-01,1,109
2015-04-02,0,87
2015-04-03,1,98
2015-04-04,2,99
2015-04-05,1,98
2015-04-06,1,106
2015-04-07,1,97
2015-04-08,1,108
2015-04-09,1,100
2015-04-10,0,116
2015-04-11,1,108
2015-04-12,0,102
2015-04-13,0,102
2015-04-14,1,113
2015-04-15,1,96
2015-04-16,1,106
2015-04-17,1,91
2015-04-18,0,121
2015-04-19,0,99
2015-04-20,0,116
2015-04-21,1,102
2015-04-22,1,105
2015-04-23,0,100
2015-04-24,0,101
2015-04-25,0,99
2015-04-26,2,103
2015-04-27,0,108
2015-04-28,0,98
2015-04-29,0,104
2015-04-30,0,114
2015-05-01,1,100
2015-05-02,1,105
2015-05-03,1,101
2015-05-04,0,114
2015-05-05,0,91
2015-05-06,1,117
2015-05-07,0,106
2015-05-08,0,112
2015-05-09,1,99
2015-05-10,0,108
2015-05-11,3,100
2015-05-12,2,123
2015-05-13,1,92
2015-05-14,0,120
2015-05-15,0,102
2015-05-16,0,117
2015-05-17,2,88
2015-05-18,0,115
2015-05-19,4,87
2015-05-20,0,128
2015-05-21,1,96
2015-05-22,0,114
2015-05-23,0,108
2015-05-24,0,106
2015-05-25,1,106
2015-05-26,1,108
2015-05-27,0,98
2015-05-28,0,23
2015-05-29,0,143
2015-05-30,0,86
2015-05-31,1,123
2015-06-01,1,100
2015-06-02,0,113
2015-06-03,0,90
2015-06-04,1,110
2015-06-05,1,111
2015-06-06,1,112
2015-06-07,0,100
2015-06-08,0,122
2015-06-09,1,91
2015-06-10,0,116
2015-06-11,0,100
2015-06-12,0,119
2015-06-13,0,99
2015-06-14,2,101
2015-06-15,1,67
2015-06-16,2,125
2015-06-17,0,92
2015-06-18,1,116
2015-06-19,0,99
2015-06-20,0,117
2015-06-21,3,91
2015-06-22,0,115
2015-06-23,0,101
2015-06-24,1,116
2015-06-25,1,98
2015-06-26,1,117
2015-06-27,3,101
2015-06-28,2,106
2015-06-29,2,112
2015-06-30,0,110
2015-07-01,1,113
2015-07-02,0,114
2015-07-03,2,111
2015-07-04,0,107
2015-07-05,1,98
2015-07-06,0,124
2015-07-07,0,91
2015-07-08,3,121
2015-07-09,0,112
2015-07-10,1,118
2015-07-11,0,108
2015-07-12,1,115
2015-07-13,0,112
2015-07-14,1,102
2015-07-15,0,110
2015-07-16,0,116
2015-07-17,1,106
2015-07-18,0,117
2015-07-19,1,110
2015-07-20,1,106
2015-07-21,0,101
2015-07-22,1,107
2015-07-23,1,111
2015-07-24,0,108
2015-07-25,0,115
2015-07-26,1,89
2015-07-27,2,115
2015-07-28,1,108
2015-07-29,0,124
2015-07-30,0,109
2015-07-31,0,105
2015-08-01,0,108
2015-08-02,0,102
2015-08-03,0,108
2015-08-04,0,91
2015-08-05,0,98
2015-08-06,1,101
2015-08-07,1,96
2015-08-08,0,103
2015-08-09,1,93
2015-08-10,0,97
2015-08-11,2,94
2015-08-12,0,110
2015-08-13,0,100
2015-08-14,2,104
2015-08-15,0,95
2015-08-16,0,93
2015-08-17,2,103
2015-08-18,2,101
2015-08-19,1,102
2015-08-20,1,101
2015-08-21,2,103
2015-08-22,1,106
2015-08-23,1,106
2015-08-24,1,113
2015-08-25,0,99
2015-08-26,1,112
2015-08-27,0,102
2015-08-28,0,104
2015-08-29,2,102
2015-08-30,4,105
2015-08-31,1,101
2015-09-01,0,102
2015-09-02,3,109
2015-09-03,0,113
2015-09-04,0,105
2015-09-05,0,96
2015-09-06,1,97
2015-09-07,1,111
2015-09-08,0,99
2015-09-09,0,97
2015-09-10,1,97
2015-09-11,1,106
2015-09-12,2,105
2015-09-13,2,111
2015-09-14,0,94
2015-09-15,0,108
2015-09-16,0,105
2015-09-17,0,99
2015-09-18,1,111
2015-09-19,0,93
2015-09-20,0,98
2015-09-21,1,100
2015-09-22,2,95
2015-09-23,0,104
2015-09-24,0,98
2015-09-25,0,100
2015-09-26,1,98
2015-09-27,2,92
2015-09-28,0,97
2015-09-29,0,96
2015-09-30,1,100
2015-10-01,1,90
2015-10-02,0,93
2015-10-03,2,87
2015-10-04,0,100
2015-10-05,0,85
2015-10-06,0,94
2015-10-07,1,94
2015-10-08,0,98
2015-10-09,0,84
2015-10-10,0,95
2015-10-11,1,94
2015-10-12,1,95
2015-10-13,0,92
2015-10-14,0,96
2015-10-15,1,89
2015-10-16,3,106
2015-10-17,1,99
2015-10-18,1,94
2015-10-19,1,100
2015-10-20,2,84
2015-10-21,1,104
2015-10-22,0,87
2015-10-23,0,97
2015-10-24,0,87
2015-10-25,0,88
2015-10-26,1,95
2015-10-27,0,96
2015-10-28,0,88
2015-10-29,0,95
2015-10-30,1,99
2015-10-31,0,98
2015-11-01,0,92
2015-11-02,1,92
2015-11-03,0,91
2015-11-04,0,74
2015-11-05,1,93
2015-11-06,0,81
2015-11-07,1,89
2015-11-08,1,74
2015-11-09,0,95
2015-11-10,0,77
2015-11-11,2,81
2015-11-12,0,79
2015-11-13,0,75
2015-11-14,0,82
2015-11-15,3,66
2015-11-16,0,74
2015-11-17,0,74
2015-11-18,0,66
2015-11-19,1,75
2015-11-20,0,65
2015-11-21,2,62
2015-11-22,0,59
2015-11-23,1,57
2015-11-24,0,60
2015-11-25,0,57
2015-11-26,0,49
2015-11-27,2,62
2015-11-28,0,60
2015-11-29,1,53
2015-11-30,1,61
2015-12-01,0,53
2015-12-02,1,54
2015-12-03,0,49
2015-12-04,0,62
2015-12-05,2,54
2015-12-06,0,57
2015-12-07,0,49
2015-12-08,1,57
2015-12-09,1,45
2015-12-10,1,53
2015-12-11,0,46
2015-12-12,0,54
2015-12-13,0,56
2015-12-14,1,45
2015-12-15,0,57
2015-12-16,0,48
2015-12-17,0,53
2015-12-18,0,47
2015-12-19,0,57
2015-12-20,0,47
2015-12-21,0,51
2015-12-22,2,45
2015-12-23,0,58
2015-12-24,0,42
2015-12-25,3,50
2015-12-26,0,47
2015-12-27,1,58
2015-12-28,3,44
2015-12-29,0,52
2015-12-30,1,50
2015-12-31,0,58
2016-01-01,0,52
2016-01-02,0,46
2016-01-03,2,55
2016-01-04,1,55
2016-01-05,1,50
2016-01-06,0,56
2016-01-07,0,52
2016-01-08,2,55
2016-01-09,1,49
2016-01-10,0,54
2016-01-11,0,58
2016-01-12,0,51
2016-01-13,0,51
2016-01-14,0,48
2016-01-15,0,55
2016-01-16,1,53
2016-01-17,0,50
2016-01-18,0,49
2016-01-19,0,46
2016-01-20,0,55
2016-01-21,3,41
2016-01-22,1,57
2016-01-23,2,44
2016-01-24,1,49
2016-01-25,0,46
2016-01-26,0,57
2016-01-27,0,44
2016-01-28,1,54
2016-01-29,0,42
2016-01-30,0,49
2016-01-31,0,45
2016-02-01,1,49
2016-02-02,2,51
2016-02-03,0,50
2016-02-04,0,52
2016-02-05,0,44
2016-02-06,2,53
2016-02-07,0,37
2016-02-08,1,52
2016-02-09,0,48
2016-02-10,0,51
2016-02-11,0,35
2016-02-12,0,62
2016-02-13,1,43
2016-02-14,1,54
2016-02-15,0,37
2016-02-16,0,60
2016-02-17,0,40
2016-02-18,0,58
2016-02-19,0,40
2016-02-20,0,51
2016-02-21,1,41
2016-02-22,1,53
2016-02-23,1,44
2016-02-24,1,48
2016-02-25,0,40
2016-02-26,0,50
2016-02-27,0,40
2016-02-28,0,61
2016-02-29,0,47
2016-03-01,0,54
2016-03-02,0,48
2016-03-03,0,48
2016-03-04,1,50
2016-03-05,0,52
2016-03-06,0,47
2016-03-07,0,51
2016-03-08,2,44
2016-03-09,0,52
2016-03-10,0,44
2016-03-11,0,53
2016-03-12,1,44
2016-03-13,1,46
2016-03-14,1,42
2016-03-15,0,52
2016-03-16,0,44
2016-03-17,0,49
2016-03-18,0,44
2016-03-19,2,48
2016-03-20,1,50
2016-03-21,2,52
2016-03-22,0,49
2016-03-23,0,45
2016-03-24,0,47
2016-03-25,1,51
2016-03-26,1,42
2016-03-27,0,42
2016-03-28,0,53
2016-03-29,1,38
2016-03-30,0,50
2016-03-31,1,41
2016-04-01,1,52
2016-04-02,1,42
2016-04-03,0,49
2016-04-04,0,42
2016-04-05,1,49
2016-04-06,5,43
2016-04-07,0,46
2016-04-08,1,48
2016-04-09,0,37
2016-04-10,1,35
2016-04-11,0,47
2016-04-12,0,41
2016-04-13,2,48
2016-04-14,1,49
2016-04-15,0,42
2016-04-16,0,54
2016-04-17,2,37
2016-04-18,0,50
2016-04-19,0,39
2016-04-20,0,47
2016-04-21,0,33
2016-04-22,0,47
2016-04-23,0,36
2016-04-24,0,45
2016-04-25,0,41
2016-04-26,1,50
2016-04-27,3,41
2016-04-28,2,47
2016-04-29,1,47
2016-04-30,2,45
2016-05-01,1,47
2016-05-02,3,50
2016-05-03,1,49
2016-05-04,1,44
2016-05-05,1,43
2016-05-06,0,43
2016-05-07,0,40
2016-05-08,0,50
2016-05-09,0,41
2016-05-10,1,48
2016-05-11,0,45
2016-05-12,1,41
2016-05-13,0,50
2016-05-14,3,39
2016-05-15,0,51
2016-05-16,0,36
2016-05-17,0,50
2016-05-18,0,45
2016-05-19,0,55
2016-05-20,2,52
2016-05-21,1,58
2016-05-22,0,53
2016-05-23,0,61
2016-05-24,0,55
2016-05-25,0,68
2016-05-26,0,60
2016-05-27,0,74
2016-05-28,0,70
2016-05-29,2,79
2016-05-30,0,86
2016-05-31,0,83
2016-06-01,2,81
2016-06-02,1,76
2016-06-03,0,88
2016-06-04,0,85
2016-06-05,1,94
2016-06-06,1,86
2016-06-07,0,93
2016-06-08,1,88
2016-06-09,0,88
2016-06-10,0,95
2016-06-11,1,93
2016-06-12,0,82
2016-06-13,1,91
2016-06-14,0,86
2016-06-15,0,91
2016-06-16,1,96
2016-06-17,1,83
2016-06-18,1,89
2016-06-19,0,88
2016-06-20,1,95
2016-06-21,1,93
2016-06-22,0,88
2016-06-23,0,90
2016-06-24,0,81
2016-06-25,0,88
2016-06-26,1,90
2016-06-27,2,82
2016-06-28,0,93
2016-06-29,1,87
2016-06-30,0,100
2016-07-01,1,88
2016-07-02,0,93
2016-07-03,0,86
2016-07-04,0,95
2016-07-05,0,82
2016-07-06,0,96
2016-07-07,0,89
2016-07-08,1,108
2016-07-09,0,89
2016-07-10,1,100
2016-07-11,2,92
2016-07-12,0,99
2016-07-13,0,89
2016-07-14,0,92
2016-07-15,0,90
2016-07-16,1,96
2016-07-17,0,90
2016-07-18,1,93
2016-07-19,0,82
2016-07-20,1,109
2016-07-21,0,93
2016-07-22,0,97
2016-07-23,0,89
2016-07-24,0,99
2016-07-25,0,93
2016-07-26,1,83
2016-07-27,2,94
2016-07-28,0,93
2016-07-29,0,93
2016-07-30,0,96
2016-07-31,0,88
2016-08-01,0,99
2016-08-02,1,85
2016-08-03,0,99
2016-08-04,0,86
2016-08-05,1,100
2016-08-06,0,88
2016-08-07,1,96
2016-08-08,1,82
2016-08-09,0,87
2016-08-10,0,96
2016-08-11,1,96
2016-08-12,1,93
2016-08-13,0,95
2016-08-14,0,85
2016-08-15,0,97
2016-08-16,1,97
2016-08-17,0,97
2016-08-18,0,86
2016-08-19,0,98
2016-08-20,1,77
2016-08-21,0,95
2016-08-22,0,95
2016-08-23,1,90
2016-08-24,0,100
2016-08-25,0,97
2016-08-26,0,94
2016-08-27,0,85
2016-08-28,0,94
2016-08-29,2,88
2016-08-30,0,92
2016-08-31,0,88
2016-09-01,0,90
2016-09-02,0,87
2016-09-03,1,85
2016-09-04,0,78
2016-09-05,0,92
2016-09-06,1,81
2016-09-07,0,94
2016-09-08,2,83
2016-09-09,2,90
2016-09-10,1,78
2016-09-11,0,83
2016-09-12,1,80
2016-09-13,1,84
2016-09-14,0,86
2016-09-15,1,77
2016-09-16,1,85
2016-09-17,0,82
2016-09-18,0,91
2016-09-19,0,85
2016-09-20,1,75
2016-09-21,0,96
2016-09-22,0,77
2016-09-23,2,91
2016-09-24,0,74
2016-09-25,0,87
2016-09-26,0,85
2016-09-27,0,77
2016-09-28,0,81
2016-09-29,0,86
2016-09-30,0,84
2016-10-01,1,97
2016-10-02,0,80
2016-10-03,0,85
2016-10-04,2,85
2016-10-05,0,81
2016-10-06,0,93
2016-10-07,0,87
2016-10-08,0,84
2016-10-09,1,79
2016-10-10,0,97
2016-10-11,0,76
2016-10-12,0,95
2016-10-13,0,83
2016-10-14,0,91
2016-10-15,0,82
2016-10-16,0,90
2016-10-17,1,80
2016-10-18,0,88
2016-10-19,1,70
2016-10-20,0,104
2016-10-21,0,72
2016-10-22,1,97
2016-10-23,1,83
2016-10-24,0,98
2016-10-25,0,76
2016-10-26,1,87
2016-10-27,0,77
2016-10-28,0,83
2016-10-29,0,81
2016-10-30,1,74
2016-10-31,1,80
2016-11-01,0,72
2016-11-02,0,85
2016-11-03,0,73
2016-11-04,0,84
2016-11-05,0,72
2016-11-06,2,77
2016-11-07,0,81
2016-11-08,1,74
2016-11-09,0,83
2016-11-10,2,69
2016-11-11,1,79
2016-11-12,1,71
2016-11-13,0,79
2016-11-14,0,81
2016-11-15,0,79
2016-11-16,1,85
2016-11-17,0,82
2016-11-18,1,82
2016-11-19,0,76
2016-11-20,0,84
2016-11-21,1,85
2016-11-22,0,76
2016-11-23,1,85
2016-11-24,0,78
2016-11-25,0,77
2016-11-26,0,71
2016-11-27,0,80
2016-11-28,2,77
2016-11-29,2,80
2016-11-30,0,77
2016-12-01,0,77
2016-12-02,2,85
2016-12-03,0,74
2016-12-04,1,71
2016-12-05,0,92
2016-12-06,0,74
2016-12-07,0,83
2016-12-08,0,83
2016-12-09,1,76
2016-12-10,0,69
2016-12-11,0,76
2016-12-12,0,84
2016-12-13,1,76
2016-12-14,0,80
2016-12-15,0,74
2016-12-16,0,74
2016-12-17,1,67
2016-12-18,2,77
2016-12-19,2,72
2016-12-20,2,85
2016-12-21,0,75
2016-12-22,1,82
2016-12-23,2,70
2016-12-24,1,73
2016-12-25,0,70
2016-12-26,0,76
2016-12-27,0,77
2016-12-28,0,72
2016-12-29,1,79
2016-12-30,6,79
2016-12-31,1,92
2017-01-01,0,88
2017-01-02,1,94
2017-01-03,2,83
2017-01-04,0,95
2017-01-05,0,85
2017-01-06,0,96
2017-01-07,1,84
2017-01-08,1,94
2017-01-09,1,99
2017-01-10,0,88
2017-01-11,1,93
2017-01-12,2,94
2017-01-13,2,86
2017-01-14,0,103
2017-01-15,0,83
2017-01-16,1,96
2017-01-17,0,90
2017-01-18,0,96
2017-01-19,0,86
2017-01-20,0,97
2017-01-21,0,71
2017-01-22,0,96
2017-01-23,0,77
2017-01-24,0,107
2017-01-25,0,75
2017-01-26,0,99
2017-01-27,0,78
2017-01-28,0,90
2017-01-29,1,74
2017-01-30,2,86
2017-01-31,0,80
2017-02-01,2,90
2017-02-02,0,81
2017-02-03,0,93
2017-02-04,1,86
2017-02-05,0,89
2017-02-06,0,93
2017-02-07,0,88
2017-02-08,0,91
2017-02-09,1,89
2017-02-10,1,101
2017-02-11,0,86
2017-02-12,0,79
2017-02-13,0,87
2017-02-14,0,92
2017-02-15,0,85
2017-02-16,1,84
2017-02-17,0,95
2017-02-18,3,83
2017-02-19,1,85
2017-02-20,1,98
2017-02-21,0,82
2017-02-22,0,83
2017-02-23,0,79
2017-02-24,0,91
2017-02-25,0,93
2017-02-26,0,73
2017-02-27,0,97
2017-02-28,0,80
2017-03-01,0,87
2017-03-02,0,70
2017-03-03,0,87
2017-03-04,0,67
2017-03-05,0,92
2017-03-06,0,76
2017-03-07,1,91
2017-03-08,0,76
2017-03-09,0,85
2017-03-10,0,73
2017-03-11,0,88
2017-03-12,0,82
2017-03-13,0,85
2017-03-14,2,75
2017-03-15,0,96
2017-03-16,0,71
2017-03-17,0,97
2017-03-18,0,75
2017-03-19,1,83
2017-03-20,1,87
2017-03-21,0,80
2017-03-22,1,88
2017-03-23,1,81
2017-03-24,0,86
2017-03-25,1,74
2017-03-26,1,83
2017-03-27,0,76
2017-03-28,0,78
2017-03-29,0,75
2017-03-30,0,80
2017-03-31,0,70
2017-04-01,0,79
2017-04-02,0,75
2017-04-03,0,81
2017-04-04,0,77
2017-04-05,0,79
2017-04-06,0,82
2017-04-07,0,73
2017-04-08,0,71
2017-04-09,0,76
2017-04-10,0,72
2017-04-11,0,72
2017-04-12,0,85
2017-04-13,0,72
2017-04-14,0,77
2017-04-15,0,71
2017-04-16,1,82
2017-04-17,1,67
2017-04-18,0,87
2017-04-19,0,59
2017-04-20,0,72
2017-04-21,0,60
2017-04-22,0,1
2017-04-23,0,98
2017-04-24,0,58
2017-04-25,1,85
2017-04-26,0,57
2017-04-27,0,85
2017-04-28,0,59
2017-04-29,0,91
2017-04-30,0,62
2017-05-01,0,87
2017-05-02,0,72
2017-05-03,0,86
2017-05-04,0,72
2017-05-05,0,81
2017-05-06,0,65
2017-05-07,0,68
2017-05-08,0,64
2017-05-09,1,75
2017-05-10,0,65
2017-05-11,1,70
2017-05-12,0,66
2017-05-13,0,67
2017-05-14,0,62
2017-05-15,0,72
2017-05-16,0,66
2017-05-17,0,69
2017-05-18,0,60
2017-05-19,0,78
2017-05-20,1,58
2017-05-21,0,71
2017-05-22,0,65
2017-05-23,0,72
2017-05-24,0,68
2017-05-25,0,71
2017-05-26,0,62
2017-05-27,0,72
2017-05-28,0,62
2017-05-29,0,70
2017-05-30,0,58
2017-05-31,0,70
2017-06-01,1,66
2017-06-02,0,65
2017-06-03,0,53
2017-06-04,0,71
2017-06-05,0,61
2017-06-06,0,65
2017-06-07,0,60
2017-06-08,1,68
2017-06-09,1,61
2017-06-10,1,65
2017-06-11,0,64
2017-06-12,0,61
2017-06-13,0,72
2017-06-14,0,66
2017-06-15,0,67
2017-06-16,0,64
2017-06-17,0,73
2017-06-18,0,58
2017-06-19,0,66
2017-06-20,0,63
2017-06-21,0,66
2017-06-22,1,67
2017-06-23,0,69
2017-06-24,0,57
2017-06-25,0,63
2017-06-26,0,61
2017-06-27,2,63
2017-06-28,0,61
2017-06-29,0,63
2017-06-30,0,61
2017-07-01,0,64
2017-07-02,0,59
2017-07-03,0,57
2017-07-04,0,62
2017-07-05,1,67
2017-07-06,0,58
2017-07-07,0,59
2017-07-08,0,49
2017-07-09,0,59
2017-07-10,0,60
2017-07-11,0,59
2017-07-12,0,55
2017-07-13,0,70
2017-07-14,0,59
2017-07-15,0,55
2017-07-16,0,64
2017-07-17,0,59
2017-07-18,0,60
2017-07-19,0,64
2017-07-20,0,69
2017-07-21,0,85
2017-07-22,0,63
2017-07-23,0,68
2017-07-24,0,64
2017-07-25,0,64
2017-07-26,0,60
2017-07-27,0,70
2017-07-28,0,64
2017-07-29,0,60
2017-07-30,0,64
2017-07-31,0,64
2017-08-01,0,59
2017-08-02,0,66
2017-08-03,0,68
2017-08-04,0,62
2017-08-05,0,57
2017-08-06,0,72
2017-08-07,1,51
2017-08-08,0,63
2017-08-09,0,56
2017-08-10,0,60
2017-08-11,0,65
2017-08-12,0,51
2017-08-13,0,64
2017-08-14,0,63
2017-08-15,0,67
2017-08-16,0,59
2017-08-17,0,63
2017-08-18,0,57
2017-08-19,0,62
2017-08-20,0,54
2017-08-21,0,57
2017-08-22,0,53
2017-08-23,0,49
2017-08-24,0,61
2017-08-25,1,47
2017-08-26,0,54
2017-08-27,0,51
2017-08-28,0,57
2017-08-29,0,46
2017-08-30,0,46
2017-08-31,0,50
2017-09-01,1,59
2017-09-02,0,54
2017-09-03,1,58
2017-09-04,0,54
2017-09-05,0,50
2017-09-06,0,35
2017-09-07,0,54
2017-09-08,0,57
2017-09-09,0,51
2017-09-10,0,50
2017-09-11,0,54
2017-09-12,1,45
2017-09-13,0,44
2017-09-14,0,50
2017-09-15,0,51
2017-09-16,0,44
2017-09-17,0,43
2017-09-18,0,56
2017-09-19,0,48
2017-09-20,0,57
2017-09-21,0,58
2017-09-22,0,44
2017-09-23,1,57
2017-09-24,0,51
2017-09-25,0,49
2017-09-26,0,44
2017-09-27,0,52
2017-09-28,0,55
2017-09-29,0,46
2017-09-30,0,45
2017-10-01,0,49
2017-10-02,0,44
2017-10-03,1,42
2017-10-04,0,42
2017-10-05,0,54
2017-10-06,0,50
2017-10-07,0,48
2017-10-08,0,45
2017-10-09,1,56
2017-10-10,0,50
2017-10-11,0,54
2017-10-12,0,41
2017-10-13,0,47
2017-10-14,0,42
2017-10-15,0,48
2017-10-16,0,55
2017-10-17,0,46
2017-10-18,0,47
2017-10-19,0,48
2017-10-20,0,55
2017-10-21,0,45
2017-10-22,0,44
2017-10-23,0,53
2017-10-24,0,43
2017-10-25,0,48
2017-10-26,0,45
2017-10-27,1,44
2017-10-28,0,39
2017-10-29,0,52
2017-10-30,0,53
2017-10-31,0,52
2017-11-01,0,50
2017-11-02,0,57
2017-11-03,0,49
2017-11-04,0,50
2017-11-05,0,45
2017-11-06,0,25
2017-11-07,0,51
2017-11-08,0,51
2017-11-09,0,48
2017-11-10,0,47
2017-11-11,0,51
2017-11-12,1,38
2017-11-13,1,52
2017-11-14,0,53
2017-11-15,0,45
2017-11-16,0,46
2017-11-17,0,42
2017-11-18,0,42
2017-11-19,1,39
2017-11-20,2,41
2017-11-21,0,40
2017-11-22,0,40
2017-11-23,1,43
2017-11-24,0,36
2017-11-25,0,44
2017-11-26,0,33
2017-11-27,0,48
2017-11-28,0,34
2017-11-29,0,31
2017-11-30,0,39
2017-12-01,0,34
2017-12-02,1,46
2017-12-03,0,36
2017-12-04,0,39
2017-12-05,0,45
2017-12-06,0,39
2017-12-07,0,46
2017-12-08,0,38
2017-12-09,0,31
2017-12-10,0,40
2017-12-11,0,41
2017-12-12,0,41
2017-12-13,0,38
2017-12-14,0,37
2017-12-15,0,40
2017-12-16,0,40
2017-12-17,0,32
2017-12-18,0,39
2017-12-19,0,33
2017-12-20,0,40
2017-12-21,0,43
2017-12-22,0,30
2017-12-23,0,41
2017-12-24,0,29
2017-12-25,1,39
2017-12-26,0,45
2017-12-27,0,41
2017-12-28,0,35
2017-12-29,0,39
2017-12-30,0,33
2017-12-31,0,38
2018-01-01,0,33
2018-01-02,0,49
2018-01-03,0,33
2018-01-04,0,40
2018-01-05,0,39
2018-01-06,0,36
2018-01-07,0,40
2018-01-08,0,40
2018-01-09,0,40
2018-01-10,0,41
2018-01-11,0,35
2018-01-12,0,44
2018-01-13,0,35
2018-01-14,0,43
2018-01-15,0,35
2018-01-16,0,43
2018-01-17,0,39
2018-01-18,0,36
2018-01-19,0,43
2018-01-20,0,42
2018-01-21,0,40
2018-01-22,0,37
2018-01-23,0,40
2018-01-24,1,42
2018-01-25,0,37
2018-01-26,0,39
2018-01-27,0,33
2018-01-28,0,38
2018-01-29,0,38
2018-01-30,0,31
2018-01-31,0,37
2018-02-01,0,37
2018-02-02,0,39
2018-02-03,0,33
2018-02-04,0,36
2018-02-05,0,39
2018-02-06,0,32
2018-02-07,0,39
2018-02-08,0,35
2018-02-09,1,35
2018-02-10,0,41
2018-02-11,0,32
2018-02-12,0,34
2018-02-13,0,35
2018-02-14,0,33
2018-02-15,0,36
2018-02-16,0,33
2018-02-17,0,36
2018-02-18,0,30
2018-02-19,1,37
2018-02-20,1,37
2018-02-21,0,35
2018-02-22,0,38
2018-02-23,0,38
2018-02-24,1,33
2018-02-25,0,25
2018-02-26,0,27
2018-02-27,0,25
2018-02-28,0,26
2018-03-01,0,31
2018-03-02,0,27
2018-03-03,0,37
2018-03-04,0,29
2018-03-05,0,29
2018-03-06,0,23
2018-03-07,0,27
2018-03-08,0,25
2018-03-09,0,27
2018-03-10,0,27
2018-03-11,0,25
2018-03-12,0,25
2018-03-13,0,27
2018-03-14,0,23
2018-03-15,1,27
2018-03-16,0,25
2018-03-17,0,30
2018-03-18,0,29
2018-03-19,2,26
2018-03-20,0,28
2018-03-21,0,24
2018-03-22,0,28
2018-03-23,0,33
2018-03-24,0,29
2018-03-25,0,29
2018-03-26,0,30
2018-03-27,0,24
2018-03-28,0,30
2018-03-29,1,33
2018-03-30,0,30
2018-03-31,1,30
2018-04-01,0,22
2018-04-02,0,27
2018-04-03,0,29
2018-04-04,0,29
2018-04-05,0,28
2018-04-06,0,31
2018-04-07,0,24
2018-04-08,0,27
2018-04-09,0,31
2018-04-10,0,25
2018-04-11,0,29
2018-04-12,1,27
2018-04-13,0,25
2018-04-14,0,26
2018-04-15,0,31
2018-04-16,0,24
2018-04-17,0,19
2018-04-18,0,24
2018-04-19,0,26
2018-04-20,0,25
2018-04-21,0,31
2018-04-22,1,29
2018-04-23,0,24
2018-04-24,0,31
2018-04-25,0,30
2018-04-26,0,29
2018-04-27,0,17
2018-04-28,0,31
2018-04-29,0,22
2018-04-30,0,22
2018-05-01,0,23
2018-05-02,0,30
2018-05-03,0,24
2018-05-04,0,29
2018-05-05,0,25
2018-05-06,0,25
2018-05-07,0,28
2018-05-08,0,29
2018-05-09,0,25
2018-05-10,0,18
2018-05-11,0,26
2018-05-12,0,24
2018-05-13,0,21
2018-05-14,0,23
2018-05-15,0,23
2018-05-16,0,29
2018-05-17,0,11
2018-05-18,0,25
2018-05-19,0,17
2018-05-20,0,22
2018-05-21,0,19
2018-05-22,0,20
2018-05-23,0,24
2018-05-24,0,24
2018-05-25,0,24
2018-05-26,0,24
2018-05-27,0,23
2018-05-28,0,26
2018-05-29,0,20
2018-05-30,0,25
2018-05-31,0,28
2018-06-01,0,21
2018-06-02,0,21
2018-06-03,0,21
2018-06-04,0,18
2018-06-05,0,24
2018-06-06,0,19
2018-06-07,0,24
2018-06-08,0,24
2018-06-09,0,20
2018-06-10,0,17
2018-06-11,0,21
2018-06-12,0,24
2018-06-13,0,17
2018-06-14,0,21
2018-06-15,0,19
2018-06-16,1,17
2018-06-17,0,18
2018-06-18,0,19
2018-06-19,0,25
2018-06-20,0,11
2018-06-21,0,25
2018-06-22,0,22
2018-06-23,0,18
2018-06-24,0,15
2018-06-25,0,22
2018-06-26,0,13
2018-06-27,0,17